SCP
0 -0 -0 -0 -0 -0 -0 -0 -0 0 0 -0 -0 -0 -0 -0 -0 -0 -0 -0 0 0 0 0 0 0 0 0 0 0 0 0 0 0 -0 -0 -0 -0 -0 -0 -0 0 -0
0 -0 -0 -0 -0 -0 -0 -0 -0 -0 -0 0 0 0 0 0 -0 -0 -0 -0 0 0 0 -0 -0 0 0 0 0 0 0 0 0 0 0 -0 -0 -0 -0 -0 -0 -0 -0
0 -0 -0 -0 -0 -0 -0 -0 -0 -0 -0 -0 -0 0 0 0 0 -0 -0 -0 0 0 0 0 0 -0 0 0 0 0 0 0 0 0 0 0 0 0 -0 -0 -0 -0 -0
0 0 0 -0 -0 -0 -0 -0 -0 -0 -0 -0 -0 -0 -0 -0 0 0 0 0 0 0 0 0 0 0 0 0 0 0 0 0 0 0 0 0 0 0 0 0 0 -0 -0
0 0 0 -0 -0 -0 -0 -0 -0 -0 -0 -0 -0 -0 -0 -0 0 0 0 0 0 0 0 0 0 0 0 0 0 0 0 0 0 0 0 0 0 0 0 0 0 0 0
0 0 -0 -0 -0 -0 -0 -0 -0 -0 -0 -0 -0 -0 -0 -0 -0 -0 0 0 0 0 0 0 0 0 0 0 0 0 0 0 0 0 0 0 0 0 0 0 0 0 0
0 0 0 -0 -0 -0 -0 -0 -0 -0 -0 -0 -0 -0 -0 -0 0 0 0 0 0 0 0 0 0 0 0 0 0 0 0 0 0 0 0 0 0 0 0 0 0 0 0
0 0 0 0 0 0 -0 -0 -0 -0 -0 0 0 -0 -0 -0 0 0 0 0 0 0 0 0 0 0 0 0 0 0 0 0 0 0 0 0 0 0 0 0 0 0 0
0 0 0 0 0 0 0 0 -0 -0 -0 0 0 0 0 0 0 0 0 0 0 0 0 0 0 0 0 0 0 0 0 0 0 0 0 0 0 0 0 0 0 0 0
0 0 0 0 0 0 0 0 0 0 0 0 0 0 0 0 0 0 0 0 0 0 0 0 0 0 0 0 0 0 0 0 0 0 0 0 0 0 0 0 0 0 0
0 0 0 0 0 0 0 0 0 0 0 0 0 0 0 0 0 0 0 0 0 0 0 0 0 0 0 0 0 0 0 0 0 0 0 0 0 0 0 0 0 0 0
0 0 0 0 0 0 0 0 0 0 0 0 0 0 0 0 0 0 0 0 0 0 0 0 0 0 0 0 0 0 0 0 0 0 0 0 0 0 0 0 0 0 0
0 0 0 0 0 0 0 0 0 0 0 0 0 0 0 0 0 0 0 0 0 0 0 0 0 0 0 0 0 0 0 0 0 0 0 0 0 0 0 0 0 0 0
0 0 0 0 0 0 0 0 0 0 0 0 0 0 0 0 0 0 0 0 0 0 0 0 0 0 0 0 0 0 0 0 0 0 0 0 0 0 0 0 0 0 0
0 0 0 0 0 0 0 0 0 0 0 0 0 0 0 0 0 0 0 0 0 0 0 0 0 0 0 0 0 0 0 0 0 0 0 0 0 0 0 0 0 0 0
0 0 0 0 0 0 0 0 0 0 0 0 0 0 0 0 0 0 0 0 0 0 0 0 0 0 0 0 0 0 0 0 0 0 0 0 0 0 0 0 0 0 0
0 0 0 0 0 0 0 0 0 0 0 0 0 0 0 0 0 0 0 0 0 0 0 0 0 0 0 0 0 0 0 0 0 0 0 0 0 0 0 0 0 0 0
0 0 0 0 0 0 0 0 0 0 0 0 0 0 0 0 0 0 0 0 0 0 0 0 0 0 0 0 0 0 0 0 0 0 0 0 0 0 0 0 0 0 0
0 0 0 0 0 0 0 0 0 0 0 0 0 0 0 0 0 0 0 0 0 0 0 0 0 0 0 0 0 0 0 0 0 0 0 0 0 0 0 0 0 0 0
0 0 0 0 0 0 0 0 0 0 0 0 0 0 0 0 0 0 0 0 0 0 0 0 0 0 0 0 0 0 0 0 0 0 0 0 0 0 0 0 0 0 0
0 0 0 0 0 0 0 0 0 0 0 0 0 0 0 0 0 0 0 0 0 0 0 0 0 0 0 0 0 0 0 0 0 0 0 0 0 0 0 0 0 0 0
0 0 0 0 0 0 0 0 0 0 0 0 0 0 0 0 0 0 0 0 0 0 0 0 0 0 0 0 0 0 0 0 0 0 0 0 0 0 0 0 0 0 0
0 0 0 0 0 0 0 0 0 0 0 0 0 0 0 0 0 0 0 0 0 0 0 0 0 0 0 0 0 0 0 0 0 0 0 0 0 0 0 0 0 0 0
0 0 0 0 0 0 0 0 0 0 0 0 0 0 0 0 0 0 0 0 0 0 0 0 0 0 0 0 0 0 0 0 0 -0 0 0 0 0 0 0 0 0 0
0 0 0 0 0 0 0 0 0 0 0 0 0 0 0 0 0 0 0 0 0 0 0 0 0 0 0 0 0 -0 0 0 0 0 0 0 0 0 0 0 0 0 0
0 0 0 0 0 0 0 0 0 0 0 0 0 0 0 0 0 0 0 0 0 0 0 0 0 0 0 0 0 0 0 -0 0 0 0 0 0 0 0 0 0 0 0
Wind_Speed_500mb
16 36 36 31 31 32 31 29 30 28 23 17 12 9 7 6 8 9 9 5 6 11 14 12 9 7 6 5 5 4 7 9 8 10 11 13 17 18 17 19 19 16 14
13 33 37 32 28 31 28 27 29 27 24 20 15 10 7 6 8 6 6 3 7 12 13 10 9 7 6 6 4 3 2 4 3 4 4 6 9 10 10 14 17 22 20
8 28 36 33 29 29 29 27 27 25 22 18 13 9 8 7 6 7 7 6 10 12 9 7 7 6 5 4 3 2 2 1 2 4 5 4 3 2 3 5 5 10 17
7 17 30 33 32 30 28 26 24 24 20 16 13 11 9 11 12 11 10 10 11 10 7 6 5 5 5 4 3 3 2 3 1 3 5 4 4 3 3 3 3 4 7
3 13 24 30 30 29 26 25 24 23 21 18 16 14 14 18 16 13 12 12 13 11 11 9 6 6 7 8 8 7 7 6 5 5 3 5 8 8 7 4 2 3 5
3 7 19 29 31 30 29 27 25 24 22 18 16 15 17 5 8 12 15 18 20 18 13 13 10 9 9 9 11 10 10 10 9 7 6 7 8 10 10 12 7 8 5
1 6 13 25 31 32 31 29 29 27 25 22 19 18 17 19 16 16 17 22 27 26 16 12 12 12 11 12 13 12 10 12 10 10 10 11 11 13 16 16 13 9 9
2 5 9 17 28 32 32 31 30 30 28 25 23 22 25 19 17 15 17 21 27 18 11 10 12 13 12 10 8 7 8 11 12 12 11 14 15 17 18 18 17 15 13
5 5 9 14 22 30 35 35 32 30 30 28 25 27 29 23 14 18 19 17 18 14 12 12 14 13 11 9 7 6 7 9 11 12 14 17 17 20 20 21 20 16 14
7 7 10 14 20 28 34 38 37 34 33 32 30 34 32 29 27 27 20 17 17 17 14 15 15 14 12 10 10 10 9 8 10 12 15 18 19 21 20 21 20 18 17
16 15 18 20 23 26 32 37 39 39 37 36 36 36 35 34 33 34 24 18 16 16 16 18 18 16 14 13 13 13 12 12 13 13 15 16 18 20 20 21 22 21 20
20 21 24 30 29 28 31 34 39 41 41 40 39 38 37 35 33 29 26 22 18 18 20 18 17 17 18 17 18 17 16 15 15 16 16 17 18 19 20 20 22 23 24
26 28 31 31 33 32 32 32 34 37 41 42 42 41 37 38 35 34 31 29 25 25 24 23 21 18 20 22 23 22 20 19 19 17 17 17 18 20 20 21 23 24 23
17 21 21 27 30 34 32 31 30 30 34 37 35 37 37 38 35 37 36 36 34 32 29 27 24 22 23 25 27 27 26 24 23 21 20 19 19 19 20 20 23 25 25
24 25 24 23 28 29 31 26 26 24 25 30 36 42 40 38 38 38 37 37 36 36 34 35 30 28 27 28 31 32 31 30 28 26 24 22 22 22 21 22 24 26 26
24 22 22 24 28 29 28 26 22 18 16 18 23 37 40 38 38 41 40 42 37 36 38 40 38 31 32 33 33 37 37 36 35 32 30 28 26 26 25 24 25 26 28
26 24 14 14 17 28 30 26 24 19 12 9 9 13 21 25 31 32 36 38 35 37 41 42 37 36 36 38 37 38 41 42 41 40 39 36 34 32 30 29 28 28 28
23 24 26 18 6 19 26 22 20 17 14 12 13 17 19 24 28 28 34 34 34 35 39 36 41 43 41 37 38 38 40 42 44 44 44 43 41 40 36 34 32 32 31
25 26 24 18 12 13 15 18 19 18 17 15 15 16 17 17 12 14 19 26 34 34 36 35 36 39 37 37 39 40 41 44 46 47 48 49 48 46 44 41 39 36 35
24 26 26 26 26 23 20 21 16 12 8 5 9 14 18 22 21 18 18 20 23 16 15 25 31 33 36 40 43 44 46 48 51 51 49 50 52 51 49 47 46 43 41
26 24 26 25 30 22 17 16 13 5 3 6 9 9 10 11 13 19 17 18 22 20 25 26 27 24 29 35 43 49 52 55 52 51 52 52 52 53 53 53 52 50 47
57 56 50 45 37 31 24 24 19 16 11 8 8 13 17 18 20 23 23 22 24 25 29 35 36 32 32 35 38 44 41 57 19 16 23 23 35 47 53 57 57 54 51
58 59 56 56 55 52 43 32 25 20 18 12 8 5 8 9 13 15 19 21 24 25 27 31 36 39 40 37 33 26 17 14 57 54 40 46 39 25 20 29 39 49 53
53 49 48 48 49 48 42 37 32 32 28 30 25 23 20 18 18 17 16 16 17 18 19 19 19 24 30 37 37 35 33 39 36 44 53 63 63 60 55 49 35 33 33
39 37 33 34 32 32 29 28 28 29 31 28 25 21 20 20 18 19 20 23 23 24 23 19 17 17 18 19 24 30 35 42 49 53 74 72 75 70 70 70 68 65 59
29 27 23 23 25 23 23 24 24 24 24 20 21 19 21 22 23 24 25 24 24 24 28 32 32 31 28 26 25 24 27 32 41 47 63 80 80 85 76 71 72 73 72
Wind_Direction_500mb
185 181 182 179 177 173 173 174 174 174 171 166 164 163 165 148 129 131 136 126 14 13 18 22 20 28 44 67 81 94 113 102 94 93 90 83 84 98 93 95 93 88 89
185 186 183 185 184 180 179 180 182 182 186 189 188 196 187 167 157 177 199 273 341 353 359 17 33 42 46 48 66 91 128 147 106 68 90 97 96 100 105 106 105 93 75
168 185 186 188 190 188 187 188 192 198 203 207 213 212 194 181 181 228 241 293 322 338 347 354 23 31 32 36 35 95 134 170 110 70 35 67 116 92 125 136 140 124 113
163 187 194 191 194 199 200 201 205 207 213 222 229 229 226 221 227 246 267 292 317 344 336 327 345 357 345 317 301 279 209 232 251 323 352 17 6 352 268 214 185 188 176
147 190 202 201 201 203 201 205 207 210 215 225 232 237 242 243 241 255 265 282 297 308 307 296 311 320 306 294 282 271 261 255 259 296 321 341 352 22 347 331 313 238 233
184 179 200 206 208 212 215 215 218 221 226 231 232 245 254 210 241 260 281 294 302 301 299 293 296 301 295 286 275 267 261 265 268 273 281 306 330 343 39 29 339 307 281
105 211 206 211 215 218 221 222 222 228 234 239 239 231 252 251 253 271 289 300 296 289 293 289 299 305 302 289 271 261 257 265 269 271 279 289 298 307 321 328 344 321 294
345 228 230 223 223 227 229 228 228 230 236 239 238 229 247 241 246 271 292 299 298 290 293 301 310 310 307 297 293 277 264 263 270 270 276 282 289 298 306 310 314 310 293
335 289 250 240 233 232 234 235 234 231 238 239 236 235 250 247 269 285 291 303 318 313 310 312 310 305 300 288 289 281 269 264 267 274 280 277 287 293 302 307 306 302 294
302 299 276 264 248 239 239 239 240 238 239 239 234 241 245 259 268 279 281 287 318 328 316 317 312 305 298 284 282 282 282 278 277 280 283 281 293 295 305 305 303 301 296
268 282 276 261 257 252 245 244 244 244 243 241 238 242 248 255 266 272 262 264 293 320 322 320 312 305 291 278 278 281 289 290 285 283 285 292 293 297 301 300 300 302 298
271 267 270 271 263 256 254 249 245 244 244 243 243 245 252 260 267 266 273 260 277 301 308 317 305 301 283 272 272 276 279 281 283 288 291 292 293 298 298 299 301 302 305
286 275 261 250 256 259 260 256 253 248 246 245 246 249 254 264 265 259 267 277 286 292 297 306 310 290 274 265 265 267 269 272 276 280 284 288 292 297 300 302 302 302 305
304 304 273 251 245 247 255 256 257 255 256 253 250 254 246 252 263 266 272 279 283 288 292 293 299 297 284 269 263 265 267 269 271 275 278 281 286 292 296 299 300 304 309
305 294 282 259 244 238 242 251 255 263 270 262 244 247 252 256 260 269 271 277 279 287 296 295 290 290 285 276 268 266 266 267 268 269 270 274 279 285 290 294 297 301 307
316 303 288 266 240 230 224 236 251 263 287 292 266 252 257 262 265 266 270 277 280 290 295 303 302 292 290 286 280 273 270 270 269 267 267 267 269 274 279 282 287 293 299
340 338 319 285 251 220 210 218 232 244 268 305 299 274 271 275 276 274 271 271 280 285 288 293 298 298 297 292 286 281 276 273 272 271 269 267 267 268 270 274 278 281 284
2 358 1 0 290 203 195 198 210 222 229 237 253 248 251 257 258 263 267 263 277 284 285 291 286 293 298 298 293 290 283 278 275 273 271 271 271 270 271 271 273 276 279
26 27 20 26 67 122 150 170 180 202 222 231 241 254 256 253 270 275 283 288 288 285 282 288 290 291 302 303 300 293 289 284 282 277 273 271 270 271 271 271 271 271 272
51 54 57 64 76 92 111 124 140 184 180 216 262 268 269 281 281 281 279 286 275 307 295 280 284 289 294 299 299 298 293 289 284 279 275 271 270 271 271 271 271 272 271
73 70 72 80 79 82 93 108 115 96 63 333 313 315 298 290 275 273 278 288 292 297 299 293 290 295 295 299 304 298 294 293 291 288 281 277 272 268 267 266 266 267 266
74 71 70 72 76 76 78 73 71 70 82 58 358 323 333 331 312 304 304 310 303 305 301 301 302 308 307 299 306 314 316 307 291 324 295 278 277 271 269 268 267 267 268
76 72 71 70 68 64 61 67 72 72 82 83 64 32 355 340 318 305 295 286 281 283 291 302 309 310 309 304 309 317 322 299 305 297 282 293 297 287 294 291 280 273 271
76 73 70 67 65 66 68 65 67 69 70 67 60 50 39 28 21 14 7 355 336 322 308 300 295 298 301 299 293 291 295 301 309 309 296 289 286 282 284 287 284 280 276
82 72 67 61 63 68 66 67 67 70 73 76 74 72 70 65 59 50 38 34 27 22 13 360 344 338 329 311 305 299 293 289 291 300 302 299 293 286 283 281 279 276 276
82 72 67 62 65 71 72 76 75 83 87 86 76 59 48 41 38 35 27 23 23 19 14 7 5 3 2 346 329 317 309 306 299 296 297 297 298 298 296 291 286 281 276
Wind_Speed_850mb
16 36 36 31 31 32 31 29 30 28 23 17 12 9 7 6 8 9 9 5 6 11 14 12 9 7 6 5 5 4 7 9 8 10 11 13 17 18 17 19 19 16 14
13 33 37 32 28 31 28 27 29 27 24 20 15 10 7 6 8 6 6 3 7 12 13 10 9 7 6 6 4 3 2 4 3 4 4 6 9 10 10 14 17 22 20
8 28 36 33 29 29 29 27 27 25 22 18 13 9 8 7 6 7 7 6 10 12 9 7 7 6 5 4 3 2 2 1 2 4 5 4 3 2 3 5 5 10 17
7 17 30 33 32 30 28 26 24 24 20 16 13 11 9 11 12 11 10 10 11 10 7 6 5 5 5 4 3 3 2 3 1 3 5 4 4 3 3 3 3 4 7
3 13 24 30 30 29 26 25 24 23 21 18 16 14 14 18 16 13 12 12 13 11 11 9 6 6 7 8 8 7 7 6 5 5 3 5 8 8 7 4 2 3 5
3 7 19 29 31 30 29 27 25 24 22 18 16 15 17 5 8 12 15 18 20 18 13 13 10 9 9 9 11 10 10 10 9 7 6 7 8 10 10 12 7 8 5
1 6 13 25 31 32 31 29 29 27 25 22 19 18 17 19 16 16 17 22 27 26 16 12 12 12 11 12 13 12 10 12 10 10 10 11 11 13 16 16 13 9 9
2 5 9 17 28 32 32 31 30 30 28 25 23 22 25 19 17 15 17 21 27 18 11 10 12 13 12 10 8 7 8 11 12 12 11 14 15 17 18 18 17 15 13
5 5 9 14 22 30 35 35 32 30 30 28 25 27 29 23 14 18 19 17 18 14 12 12 14 13 11 9 7 6 7 9 11 12 14 17 17 20 20 21 20 16 14
7 7 10 14 20 28 34 38 37 34 33 32 30 34 32 29 27 27 20 17 17 17 14 15 15 14 12 10 10 10 9 8 10 12 15 18 19 21 20 21 20 18 17
16 15 18 20 23 26 32 37 39 39 37 36 36 36 35 34 33 34 24 18 16 16 16 18 18 16 14 13 13 13 12 12 13 13 15 16 18 20 20 21 22 21 20
20 21 24 30 29 28 31 34 39 41 41 40 39 38 37 35 33 29 26 22 18 18 20 18 17 17 18 17 18 17 16 15 15 16 16 17 18 19 20 20 22 23 24
26 28 31 31 33 32 32 32 34 37 41 42 42 41 37 38 35 34 31 29 25 25 24 23 21 18 20 22 23 22 20 19 19 17 17 17 18 20 20 21 23 24 23
17 21 21 27 30 34 32 31 30 30 34 37 35 37 37 38 35 37 36 36 34 32 29 27 24 22 23 25 27 27 26 24 23 21 20 19 19 19 20 20 23 25 25
24 25 24 23 28 29 31 26 26 24 25 30 36 42 40 38 38 38 37 37 36 36 34 35 30 28 27 28 31 32 31 30 28 26 24 22 22 22 21 22 24 26 26
24 22 22 24 28 29 28 26 22 18 16 18 23 37 40 38 38 41 40 42 37 36 38 40 38 31 32 33 33 37 37 36 35 32 30 28 26 26 25 24 25 26 28
26 24 14 14 17 28 30 26 24 19 12 9 9 13 21 25 31 32 36 38 35 37 41 42 37 36 36 38 37 38 41 42 41 40 39 36 34 32 30 29 28 28 28
23 24 26 18 6 19 26 22 20 17 14 12 13 17 19 24 28 28 34 34 34 35 39 36 41 43 41 37 38 38 40 42 44 44 44 43 41 40 36 34 32 32 31
25 26 24 18 12 13 15 18 19 18 17 15 15 16 17 17 12 14 19 26 34 34 36 35 36 39 37 37 39 40 41 44 46 47 48 49 48 46 44 41 39 36 35
24 26 26 26 26 23 20 21 16 12 8 5 9 14 18 22 21 18 18 20 23 16 15 25 31 33 36 40 43 44 46 48 51 51 49 50 52 51 49 47 46 43 41
26 24 26 25 30 22 17 16 13 5 3 6 9 9 10 11 13 19 17 18 22 20 25 26 27 24 29 35 43 49 52 55 52 51 52 52 52 53 53 53 52 50 47
57 56 50 45 37 31 24 24 19 16 11 8 8 13 17 18 20 23 23 22 24 25 29 35 36 32 32 35 38 44 41 57 19 16 23 23 35 47 53 57 57 54 51
58 59 56 56 55 52 43 32 25 20 18 12 8 5 8 9 13 15 19 21 24 25 27 31 36 39 40 37 33 26 17 14 57 54 40 46 39 25 20 29 39 49 53
53 49 48 48 49 48 42 37 32 32 28 30 25 23 20 18 18 17 16 16 17 18 19 19 19 24 30 37 37 35 33 39 36 44 53 63 63 60 55 49 35 33 33
39 37 33 34 32 32 29 28 28 29 31 28 25 21 20 20 18 19 20 23 23 24 23 19 17 17 18 19 24 30 35 42 49 53 74 72 75 70 70 70 68 65 59
29 27 23 23 25 23 23 24 24 24 24 20 21 19 21 22 23 24 25 24 24 24 28 32 32 31 28 26 25 24 27 32 41 47 63 80 80 85 76 71 72 73 72
Wind_Direction_850mb
185 181 182 179 177 173 173 174 174 174 171 166 164 163 165 148 129 131 136 126 14 13 18 22 20 28 44 67 81 94 113 102 94 93 90 83 84 98 93 95 93 88 89
185 186 183 185 184 180 179 180 182 182 186 189 188 196 187 167 157 177 199 273 341 353 359 17 33 42 46 48 66 91 128 147 106 68 90 97 96 100 105 106 105 93 75
168 185 186 188 190 188 187 188 192 198 203 207 213 212 194 181 181 228 241 293 322 338 347 354 23 31 32 36 35 95 134 170 110 70 35 67 116 92 125 136 140 124 113
163 187 194 191 194 199 200 201 205 207 213 222 229 229 226 221 227 246 267 292 317 344 336 327 345 357 345 317 301 279 209 232 251 323 352 17 6 352 268 214 185 188 176
147 190 202 201 201 203 201 205 207 210 215 225 232 237 242 243 241 255 265 282 297 308 307 296 311 320 306 294 282 271 261 255 259 296 321 341 352 22 347 331 313 238 233
184 179 200 206 208 212 215 215 218 221 226 231 232 245 254 210 241 260 281 294 302 301 299 293 296 301 295 286 275 267 261 265 268 273 281 306 330 343 39 29 339 307 281
105 211 206 211 215 218 221 222 222 228 234 239 239 231 252 251 253 271 289 300 296 289 293 289 299 305 302 289 271 261 257 265 269 271 279 289 298 307 321 328 344 321 294
345 228 230 223 223 227 229 228 228 230 236 239 238 229 247 241 246 271 292 299 298 290 293 301 310 310 307 297 293 277 264 263 270 270 276 282 289 298 306 310 314 310 293
335 289 250 240 233 232 234 235 234 231 238 239 236 235 250 247 269 285 291 303 318 313 310 312 310 305 300 288 289 281 269 264 267 274 280 277 287 293 302 307 306 302 294
302 299 276 264 248 239 239 239 240 238 239 239 234 241 245 259 268 279 281 287 318 328 316 317 312 305 298 284 282 282 282 278 277 280 283 281 293 295 305 305 303 301 296
268 282 276 261 257 252 245 244 244 244 243 241 238 242 248 255 266 272 262 264 293 320 322 320 312 305 291 278 278 281 289 290 285 283 285 292 293 297 301 300 300 302 298
271 267 270 271 263 256 254 249 245 244 244 243 243 245 252 260 267 266 273 260 277 301 308 317 305 301 283 272 272 276 279 281 283 288 291 292 293 298 298 299 301 302 305
286 275 261 250 256 259 260 256 253 248 246 245 246 249 254 264 265 259 267 277 286 292 297 306 310 290 274 265 265 267 269 272 276 280 284 288 292 297 300 302 302 302 305
304 304 273 251 245 247 255 256 257 255 256 253 250 254 246 252 263 266 272 279 283 288 292 293 299 297 284 269 263 265 267 269 271 275 278 281 286 292 296 299 300 304 309
305 294 282 259 244 238 242 251 255 263 270 262 244 247 252 256 260 269 271 277 279 287 296 295 290 290 285 276 268 266 266 267 268 269 270 274 279 285 290 294 297 301 307
316 303 288 266 240 230 224 236 251 263 287 292 266 252 257 262 265 266 270 277 280 290 295 303 302 292 290 286 280 273 270 270 269 267 267 267 269 274 279 282 287 293 299
340 338 319 285 251 220 210 218 232 244 268 305 299 274 271 275 276 274 271 271 280 285 288 293 298 298 297 292 286 281 276 273 272 271 269 267 267 268 270 274 278 281 284
2 358 1 0 290 203 195 198 210 222 229 237 253 248 251 257 258 263 267 263 277 284 285 291 286 293 298 298 293 290 283 278 275 273 271 271 271 270 271 271 273 276 279
26 27 20 26 67 122 150 170 180 202 222 231 241 254 256 253 270 275 283 288 288 285 282 288 290 291 302 303 300 293 289 284 282 277 273 271 270 271 271 271 271 271 272
51 54 57 64 76 92 111 124 140 184 180 216 262 268 269 281 281 281 279 286 275 307 295 280 284 289 294 299 299 298 293 289 284 279 275 271 270 271 271 271 271 272 271
73 70 72 80 79 82 93 108 115 96 63 333 313 315 298 290 275 273 278 288 292 297 299 293 290 295 295 299 304 298 294 293 291 288 281 277 272 268 267 266 266 267 266
74 71 70 72 76 76 78 73 71 70 82 58 358 323 333 331 312 304 304 310 303 305 301 301 302 308 307 299 306 314 316 307 291 324 295 278 277 271 269 268 267 267 268
76 72 71 70 68 64 61 67 72 72 82 83 64 32 355 340 318 305 295 286 281 283 291 302 309 310 309 304 309 317 322 299 305 297 282 293 297 287 294 291 280 273 271
76 73 70 67 65 66 68 65 67 69 70 67 60 50 39 28 21 14 7 355 336 322 308 300 295 298 301 299 293 291 295 301 309 309 296 289 286 282 284 287 284 280 276
82 72 67 61 63 68 66 67 67 70 73 76 74 72 70 65 59 50 38 34 27 22 13 360 344 338 329 311 305 299 293 289 291 300 302 299 293 286 283 281 279 276 276
82 72 67 62 65 71 72 76 75 83 87 86 76 59 48 41 38 35 27 23 23 19 14 7 5 3 2 346 329 317 309 306 299 296 297 297 298 298 296 291 286 281 276